OpenBCM V1.13 (Linux)

Packet Radio Mailbox

DB0FHN

[JN59NK Nuernberg]

 Login: GUEST





  
CX2SA  > KEPS     26.06.26 02:45l 315 Lines 14995 Bytes #999 (0) @ AMSAT
BID : ORB26170.1
Read: OE5RCO GUEST DJ6UX
Subj: 2Line Orbital Elements 26170.AMSAT
Path: DB0FHN<OE2XZR<OE6XPE<DB0RKB<DK0WUE<PD0LPM<PI8ZTM<CX2SA
Sent: 260626/0024Z @:CX2SA.SAL.URY.SOAM #:1148 [Salto] FBB7.00e $:ORB26170.1
From: CX2SA@CX2SA.SAL.URY.SOAM
To  : KEPS@AMSAT


QST de W1STR

AMSAT Orbital Elements for Amateur Satellites in TLE Format
>From Orbital Analysis Office
New England Sci-Tech STEM Education Center
Natick MA June 19, 2026
To all radio amateurs


These element sets describe the orbits of various satellites
in use by the amateur radio community. For details see:
www.amsat.org/keplerian-elements-formats/

A daily update of element sets is available at:
www.amsat.org/tle/daily-bulletin.txt
or without bulletin text:
www.amsat.org/tle/dailytle.txt


AO-07
1 07530U 74089B   26169.84572557 -.00000050  00000-0 -22316-4 0  9995
2 07530 101.9899 183.1097 0012589 127.0103  56.2077 12.53698116360729
UO-11
1 14781U 84021B   26169.63090029  .00000953  00000-0  10259-3 0  9996
2 14781  97.8058 135.1893 0007790 167.6265 192.5146 14.90786318257342
LO-19
1 20442U 90005G   26169.50756887  .00000077  00000-0  44240-4 0  9998
2 20442  98.8849 191.3496 0011194 197.0729 163.0080 14.34123547902580
AO-27
1 22825U 93061C   26169.74797184  .00000072  00000-0  44201-4 0  9993
2 22825  98.6880 237.1610 0009544  95.7674 264.4597 14.30942648707226
FO-29
1 24278U 96046B   26169.86373956 -.00000009  00000-0  23419-4 0  9992
2 24278  98.5238  18.5062 0350921  92.0938 272.0420 13.53274506473392
GO-32
1 25397U 98043D   26169.75022169  .00000035  00000-0  35257-4 0  9990
2 25397  99.0067 162.5483 0001133 159.7201 200.4022 14.24428644451550
ISS
1 25544U 98067A   26169.80206885  .00008155  00000-0  15439-3 0  9995
2 25544  51.6331 292.1003 0004667 202.2920 157.7867 15.49302471572009
NO-44
1 26931U 01043C   26169.48637696  .00000076  00000-0  59455-4 0  9997
2 26931  67.0504 240.9116 0006080 264.6354  95.4054 14.31956504290637
SO-50
1 27607U 02058C   26169.36907802  .00000788  00000-0  11046-3 0  9994
2 27607  64.5511 125.3282 0075194 262.2562  97.0002 14.83049237264630
CO-55
1 27844U 03031E   26169.72312841  .00000216  00000-0  11222-3 0  9994
2 27844  98.6736 178.2627 0009643 173.5600 186.5705 14.24336519191891
RS-22
1 27939U 03042A   26169.85155837  .00001161  00000-0  18710-3 0  9994
2 27939  98.3465 354.2570 0009917 263.9004 208.4912 14.73471325215790
CO-65
1 32785U 08021C   26169.70716628  .00004368  00000-0  27673-3 0  9996
2 32785  97.8275 151.1573 0009595  34.0332 326.1510 15.09462529985420
CO-66
1 32791U 08021J   26169.44123302  .00014056  00000-0  44622-3 0  9993
2 32791  97.7517 167.3987 0000890 357.5135   2.6101 15.32786684987483
RS-30
1 32953U 08025A   26169.78850128 -.00000001  00000-0 -76467-4 0  9997
2 32953  82.5036 354.4435 0018797 310.2054  49.7380 12.43179425819897
SRMSAT
1 37841U 11058D   26169.37117840  .00000354  00000-0  48168-4 0  9996
2 37841  19.9726  52.3001 0011756 216.7081 303.9733 14.11575778757985
ZACUBE-1
1 39417U 13066B   26169.34046199  .00002374  00000-0  18681-3 0  9993
2 39417  97.8077 131.6833 0040949 243.7163 115.9851 15.01194004680909
Delfi-N3xt
1 39428U 13066N   26169.78419961  .00004210  00000-0  36932-3 0  9994
2 39428  97.8334  90.0939 0073786 200.1735 159.6566 14.95089829674865
GOMX-1
1 39430U 13066Q   26169.82020104  .00001688  00000-0  25762-3 0  9994
2 39430  97.6474  10.1797 0130146  72.3376 289.1992 14.69466264670153
LO-74
1 39440U 13066AA  26169.80481595  .00003935  00000-0  36475-3 0  9998
2 39440  97.8910 118.7896 0058293  23.8630 336.5272 14.93773469677231
AO-73
1 39444U 13066AE  26169.64748372  .00004840  00000-0  30180-3 0  9996
2 39444  97.8281 141.1237 0035755 195.6832 164.3291 15.09504260679885
DTUSAT-2
1 40030U 14033W   26169.88907655  .00005314  00000-0  28820-3 0  9996
2 40030  98.0864 167.7240 0006804 218.7107 141.3636 15.15033669652944
LILACSAT-2
1 40908U 15049K   26169.88469556  .00013972  00000-0  23796-3 0  9997
2 40908  97.4640 206.7910 0005622 236.9424 123.1288 15.51490742596017
Horyu-4
1 41340U 16012D   26169.06253989  .00440932  72868-4  98167-3 0  9999
2 41340  30.9844  72.5998 0005942 278.9863  81.0127 15.96640257570955
Lapan A3
1 41603U 16040E   26169.82288924  .00002819  00000-0  90349-4 0  9991
2 41603  97.1489 165.9148 0010698  20.3292 339.8374 15.33113460555065
CAS-2T
1 41847U 16066G   26169.76436007  .00001345  00000-0  19556-3 0  9992
2 41847  98.3822 245.4827 0342837 124.7096 238.6899 14.44698862505025
TechnoSat
1 42829U 17042E   26169.71201740  .00002941  00000-0  21082-3 0  9997
2 42829  97.4294 327.3113 0019059  89.4279 270.9132 15.04970473486939
AO-91
1 43017U 17073E   26168.60486874  .00005679  00000-0  24962-3 0  9992
2 43017  97.4696  35.8108 0149538 327.7970  31.4193 15.12722439465459
S-Net D
1 43186U 18014G   26169.71541100  .00003689  00000-0  19168-3 0  9993
2 43186  97.5358  74.4965 0008797  25.6716 334.4952 15.16684949458992
S-Net B
1 43187U 18014H   26169.79287080  .00003922  00000-0  20371-3 0  9994
2 43187  97.5364  74.5602 0009289  20.2719 339.8881 15.16656224459008
S-Net A
1 43188U 18014J   26169.71428054  .00003683  00000-0  19133-3 0  9993
2 43188  97.5375  74.6911 0009174  21.1515 339.0095 15.16692782458997
S-Net C
1 43189U 18014K   26169.73077832  .00003987  00000-0  20707-3 0  9996
2 43189  97.5392  74.7825 0010266  12.7269 347.4221 15.16647668457545
Ten-Koh
1 43677U 18084G   26169.78812176  .00001492  00000-0  11590-3 0  9997
2 43677  98.0772   2.2195 0011503 109.5716 250.6751 15.02948043416407
PO-101
1 43678U 18084H   26169.83706674  .00002190  00000-0  17900-3 0  9996
2 43678  98.1180   6.1167 0012604 164.7913 195.3691 15.00459356416465
QO-100
1 43700U 18090A   26169.85065832  .00000138  00000-0  00000+0 0  9994
2 43700   0.0147  33.9705 0001717  90.4827 114.6450  1.00271603 27696
MinXSS-2
1 43758U 18099A   26169.77362071  .00026478  00000-0  52516-3 0  9990
2 43758  97.4528 246.1048 0006709 247.9825 112.0712 15.46983768414378
AO-95
1 43770U 18099N   26169.71623000  .00009199  00000-0  35232-3 0  9997
2 43770  97.4376 229.9567 0007800 352.1170   7.9945 15.26738292413459
SNUSat 2
1 43782U 18099AA  26169.12232972  .00006171  00000-0  27427-3 0  9993
2 43782  97.4053 222.4919 0008575 294.5412  65.4930 15.21849428413172
SnugLite
1 43784U 18099AC  26169.71620270  .00009319  00000-0  35213-3 0  9991
2 43784  97.3860 223.9812 0001178 277.2650  82.8455 15.27206578413557
ITASat 1
1 43786U 18099AE  26169.86608692  .00004904  00000-0  23668-3 0  9999
2 43786  97.4023 221.3444 0011915 354.4403   5.6697 15.19074209413161
EAGLET 1
1 43790U 18099AJ  26169.11103030  .00002855  00000-0  16543-3 0  9995
2 43790  97.4225 218.7553 0010578 351.1614   8.9430 15.12945174412478
ESEO
1 43792U 18099AL  26169.84332865  .00001539  00000-0  11474-3 0  9993
2 43792  97.3976 207.1605 0011119 334.4900  25.5776 15.04253707412053
JO-97
1 43803U 18099AX  26169.72688060  .00013287  00000-0  40994-3 0  9996
2 43803  97.4126 232.5664 0004451 255.1384 104.9366 15.33692611413867
Suomi 100
1 43804U 18099AY  26169.12282499  .00010531  00000-0  38267-3 0  9996
2 43804  97.4180 229.5127 0008378 274.8695  85.1588 15.28433243413564
ISAT
1 43879U 18111D   26169.76030619  .00076476  00000-0  75904-3 0  9997
2 43879  97.5880 105.1024 0001340 151.9672 208.1660 15.65537080411416
UWE-4
1 43880U 18111E   26169.76835926  .00027476  00000-0  55973-3 0  9993
2 43880  97.5851  98.2321 0005260 335.4333  24.6665 15.46206755411020
Sparrow
1 43881U 18111F   26169.78335911  .00125097  00000-0  83883-3 0  9994
2 43881  97.6111 110.7739 0004417 114.7601 245.4123 15.74859073411629
Prox-1
1 44339U 19036A   26168.92751771  .00010882  00000-0  10554-2 0  9990
2 44339  23.9948 109.3054 0005742  44.3809 315.7150 14.90623480373583
Taurus 1
1 44530U 19059C   26169.80608281  .00004701  00000-0  75535-3 0  9997
2 44530  98.6417 334.7334 0007380 310.2454  49.8106 14.72109570358883
TO-108
1 44881U 19093C   26169.86219211 -.00000002  00000-0  58455-5 0  9996
2 44881  97.7532 242.0535 0015070  81.7877 278.5047 14.86519282351662
RS-44
1 44909U 19096E   26169.72518458  .00000008  00000-0 -19365-4 0  9992
2 44909  82.5220 338.6827 0218230 140.5822 221.1390 12.79748853302548
SALSAT
1 46495U 20068K   26169.45370448  .00006100  00000-0  21401-3 0  9991
2 46495  97.8850 172.5954 0007987 302.8690  57.1780 15.29814902315557
CSS (TIANHE-1)
1 48274U 21035A   26169.83259120  .00017666  00000-0  20869-3 0  9994
2 48274  41.4697 311.9880 0007368  91.6871 268.4812 15.60871130293427
CUTE
1 49263U 21088D   26169.75765074  .00131466  87022-5  36919-3 0  9994
2 49263  97.4170 269.2040 0007496 226.6257 133.4394 15.93562183262801
TeikyoSat 4
1 49396U 21102B   26169.11498513  .00001339  00000-0  87268-4 0  9994
2 49396  97.3671 198.5624 0010431 293.1777  66.8353 15.09510834252866
Z-Sat
1 49399U 21102E   26169.84565576  .00003331  00000-0  16538-3 0  9996
2 49399  97.3314 205.1190 0015134 238.3132 121.6627 15.18272412253690
KOSEN 1
1 49402U 21102H   26169.84560191  .00005683  00000-0  21766-3 0  9990
2 49402  97.3179 211.9707 0013380 194.4066 165.6793 15.26853198254274
HO-113
1 50466U 21131B   26169.85950961  .00000357  00000-0  12393-3 0  9992
2 50466  98.4986 262.2401 0005388  93.0611 267.1195 14.41358642235355
SNUGLITE 2
1 52899U 22065F   26169.39765119  .00000742  00000-0  14966-3 0  9995
2 52899  98.2204 314.2259 0007927  29.5442 330.6207 14.64349584211178
UmKA 1 (RS40S)
1 57172U 23091G   26169.80460954  .00004538  00000-0  20833-3 0  9996
2 57172  97.5046 228.4957 0014282 112.6040 247.6707 15.20833066164258
CubeBel-2 (EU11S)
1 57175U 23091K   26169.81976767  .00009966  00000-0  35385-3 0  9992
2 57175  97.5047 233.0514 0011288 109.7835 250.4623 15.29184781164559
RS-38S
1 57189U 23091Z   26169.84136795  .00012276  00000-0  35131-3 0  9996
2 57189  97.5088 239.3596 0008161  72.8457 287.3680 15.36068617164946
